OneWeb SL0043

operational
NORAD ID: 45149 Int'l Des: 2020-008 Owner: ONEWEB Country: UK Constellation: oneweb
LEOCIRCULARPOLARONEWEB_TYPE

About OneWeb SL0043

Description loading...

Live Position

Loading 3D Globe...

Upcoming Passes

Altitude History

Altitude vs Time

uPlot chart will show altitude changes over time

Two-Line Element Set

1 45149U 20008U 25303.13876150 .00000423 00000-0 11767-2 0 9990
2 45149 87.8775 82.1267 0001112 94.4851 265.6403 13.10374048278058
Epoch: Oct 30, 2025 • Age: 21 hours

Current Status

Altitude 1247.5 km
Velocity 7.23 km/s
Sub-Earth Point -65.57°S, 144.04°W
Launch Date Feb 6, 2020
Age 5.7 years
Type internet

Technical Details

Classification Payload
Mass 148.00 kg
Dry Mass 140.00 kg
Total Mass 148.00 kg
Length 1.30 m
Diameter 1.00 m
Span 5.00 m
Shape Trapezoid+2 pan
Manufacturer ONEWUS
Bus Type ARROW
Phase Status In Orbit
Owner/State ONEWEB/UK

Large Constellations

Loading constellations...